This is the latest recevied weather packets stored in our database for station/object KQ4NAL. If no packets are shown the sender has not sent any weather packets the latest 10 day(s).
| Time | Temp. | Humidity | Pressure | Rain* | Wind** | Luminosity | Snow |
|---|---|---|---|---|---|---|---|
| 1778106659 | 14.44° C | 55% | 1014.2 hPa | 0 mm | - | 117 W/m² | - |
| 1778106356 | 15° C | 55% | 1014.3 hPa | 0 mm | - | 111 W/m² | - |
| 1778106052 | 15° C | 56% | 1014.3 hPa | 0 mm | - | 117 W/m² | - |
| 1778105750 | 15° C | 55% | 1014.2 hPa | 0 mm | - | 127 W/m² | - |
| 1778105448 | 15° C | 54% | 1014.3 hPa | 0 mm | - | 138 W/m² | - |
| 1778105144 | 15.56° C | 55% | 1014.4 hPa | 0 mm | - | 147 W/m² | - |
| 1778104839 | 15.56° C | 54% | 1014.4 hPa | 0 mm | - | 152 W/m² | - |
| 1778104537 | 15.56° C | 56% | 1014.7 hPa | 0 mm | - | 172 W/m² | - |
| 1778104232 | 15.56° C | 56% | 1014.5 hPa | 0 mm | - | 204 W/m² | - |
| 1778103929 | 15.56° C | 54% | 1014.5 hPa | 0 mm | - | 201 W/m² | - |
| 1778103626 | 15.56° C | 55% | 1014.3 hPa | 0 mm | - | 261 W/m² | - |
| 1778103325 | 15.56° C | 53% | 1014.3 hPa | 0 mm | - | 239 W/m² | - |
| 1778103022 | 15.56° C | 55% | 1014.4 hPa | 0 mm | - | 224 W/m² | - |
| 1778102718 | 15.56° C | 55% | 1014.4 hPa | 0 mm | - | 232 W/m² | - |
| 1778102413 | 15.56° C | 55% | 1014.3 hPa | 0 mm | - | 319 W/m² | - |
| 1778102109 | 15.56° C | 56% | 1014.1 hPa | 0 mm | - | 304 W/m² | - |
| 1778101807 | 15.56° C | 57% | 1014 hPa | 0 mm | - | 252 W/m² | - |
| 1778101503 | 15.56° C | 56% | 1014.1 hPa | 0 mm | - | 246 W/m² | - |
| 1778101200 | 15.56° C | 55% | 1013.9 hPa | 0 mm | - | 203 W/m² | - |
| 1778100896 | 15.56° C | 56% | 1013.9 hPa | 0 mm | - | 210 W/m² | - |
| 1778100592 | 15.56° C | 54% | 1013.9 hPa | 0 mm | - | 196 W/m² | - |
| 1778100290 | 15.56° C | 55% | 1013.8 hPa | 0 mm | - | 194 W/m² | - |
| 1778099987 | 15.56° C | 52% | 1013.8 hPa | 0 mm | - | 239 W/m² | - |
| 1778099684 | 16.11° C | 53% | 1013.9 hPa | 0 mm | - | 227 W/m² | - |
| 1778099381 | 16.67° C | 50% | 1013.8 hPa | 0 mm | - | 267 W/m² | - |
* Rain latest hour (hover to see other rain measurements)
** Current wind speed in m/s (hover to see current wind gust speed)